Lovelock, NV

2:33 PM PDT on April 25, 2017 (GMT -0700)
Derby

Weather History for KLOL - March, 2014

Change the Weather History Date:

Sunday, March 2, 2014

  Actual Average Record
Temperature  
Mean Temperature 43 °F -  
Max Temperature 54 °F 52 °F 68 °F (2009)
Min Temperature 32 °F 27 °F -2 °F (1971)
Degree Days  
Heating Degree Days 22    
Moisture  
Dew Point 34 °F    
Average Humidity 70    
Maximum Humidity 96    
Minimum Humidity 43    
Precipitation  
Precipitation 0.00 in - - ()
Sea Level Pressure  
Sea Level Pressure 29.97 in    
Wind  
Wind Speed 4 mph (SSW)    
Max Wind Speed 10 mph    
Max Gust Speed -    
Visibility 10 miles    
Events      
Averages and records for this station are not official NWS values.
T = Trace of Precipitation, MM = Missing Value Source: NWS Daily Summary

Daily Weather History Graph

Daily Weather History Graph

Search for Another Location

Airport or City:

Trip Planner

Search our weather history database for the weather conditions in past years. The results will help you decide how hot, cold, wet, or windy it might be!

Date:

Astronomy

Mar. 02, 2014 Rise Set
Actual Time 6:26 AM PST 5:47 PM PST
Civil Twilight 5:58 AM PST 6:14 PM PST
Nautical Twilight 5:27 AM PST 6:45 PM PST
Astronomical Twilight 4:56 AM PST 7:17 PM PST
Moon 7:00 AM PST (3/2) 7:49 PM PST (3/2)
Length of Visible Light 12h 15m
Length of Day
11h 21m
Waxing Crescent, 3% of the Moon is Illuminated
Mar 2
Waxing Crescent
Mar 8
First Quarter
Mar 16
Full
Mar 23
Last Quarter
Mar 30
New

Hourly Weather History & Observations

Time (PST) Temp. Windchill Dew Point Humidity Pressure Visibility Wind Dir Wind Speed Gust Speed Precip Events Conditions
12:53 AM 39.9 °F 35.8 °F 35.1 °F 83% 29.84 in 10.0 mi ESE 5.8 mph - 0.00 in   Overcast
1:53 AM 39.9 °F - 35.1 °F 83% 29.85 in 10.0 mi Calm Calm - N/A   Mostly Cloudy
2:53 AM 33.1 °F 27.7 °F 30.9 °F 92% 29.87 in 10.0 mi SW 5.8 mph - N/A   Clear
3:53 AM 32.0 °F - 30.0 °F 92% 29.89 in 10.0 mi Calm Calm - N/A   Scattered Clouds
4:53 AM 32.0 °F 28.7 °F 30.0 °F 92% 29.90 in 10.0 mi ENE 3.5 mph - N/A   Clear
5:53 AM 32.0 °F - 30.0 °F 92% 29.92 in 10.0 mi Calm Calm - N/A   Clear
6:53 AM 32.0 °F - 30.9 °F 96% 29.94 in 10.0 mi Calm Calm - N/A   Clear
7:53 AM 36.0 °F 33.3 °F 33.1 °F 89% 29.96 in 10.0 mi East 3.5 mph - N/A   Clear
8:53 AM 42.1 °F - 37.0 °F 82% 29.98 in 10.0 mi Calm Calm - N/A   Clear
9:53 AM 46.9 °F - 35.1 °F 63% 29.98 in 10.0 mi SW 5.8 mph - N/A   Clear
10:53 AM 46.9 °F - 35.1 °F 63% 29.99 in 10.0 mi West 3.5 mph - N/A   Clear
11:53 AM 50.0 °F - 36.0 °F 59% 29.98 in 10.0 mi SSW 9.2 mph - N/A   Clear
12:53 PM 50.0 °F - 35.1 °F 57% 29.96 in 10.0 mi SSW 6.9 mph - N/A   Mostly Cloudy
1:53 PM 53.1 °F - 33.1 °F 47% 29.95 in 10.0 mi SW 10.4 mph - N/A   Overcast
2:53 PM 53.1 °F - 32.0 °F 45% 29.96 in 10.0 mi SW 6.9 mph - N/A   Overcast
3:53 PM 54.0 °F - 32.0 °F 43% 29.96 in 10.0 mi South 9.2 mph - N/A   Overcast
4:53 PM 53.1 °F - 34.0 °F 48% 29.98 in 10.0 mi SSW 8.1 mph - N/A   Overcast
5:53 PM 51.1 °F - 36.0 °F 56% 30.00 in 10.0 mi SSE 3.5 mph - N/A   Overcast
6:53 PM 50.0 °F - 35.1 °F 57% 30.02 in 10.0 mi SSW 4.6 mph - N/A   Overcast
7:53 PM 45.0 °F 43.5 °F 36.0 °F 71% 30.04 in 10.0 mi Variable 3.5 mph - N/A   Overcast
8:53 PM 45.0 °F 43.5 °F 35.1 °F 68% 30.04 in 10.0 mi South 3.5 mph - N/A   Mostly Cloudy
9:53 PM 44.1 °F 41.5 °F 34.0 °F 68% 30.05 in 10.0 mi South 4.6 mph - N/A   Mostly Cloudy
10:53 PM 46.0 °F 43.9 °F 34.0 °F 63% 30.05 in 10.0 mi SSW 4.6 mph - N/A   Mostly Cloudy
11:53 PM 39.9 °F 33.9 °F 32.0 °F 73% 30.06 in 10.0 mi South 9.2 mph - N/A   Partly Cloudy